Time,TemperatureF,DewpointF,PressureIn,WindDirection,WindDirectionDegrees,WindSpeedMPH,WindSpeedGustMPH,Humidity,HourlyPrecipIn,Conditions,Clouds,dailyrainin,SoftwareType,DateUTC
2013-08-21 00:04:00,71.4,56.0,29.70,South,186,0.0,0.0,58,0.00,,,0.00,weatherlink.com 1.10,2013-08-21 06:04:00,
2013-08-21 00:19:00,71.6,55.0,29.70,South,186,0.0,0.0,56,0.00,,,0.00,weatherlink.com 1.10,2013-08-21 06:19:00,
2013-08-21 00:34:00,71.6,55.0,29.70,South,186,0.0,0.0,57,0.00,,,0.00,weatherlink.com 1.10,2013-08-21 06:34:00,
2013-08-21 00:49:00,71.2,56.0,29.70,South,186,0.0,0.0,59,0.00,,,0.00,weatherlink.com 1.10,2013-08-21 06:49:00,
2013-08-21 01:04:00,70.6,57.0,29.70,South,186,0.0,0.0,63,0.00,,,0.00,weatherlink.com 1.10,2013-08-21 07:04:00,
2013-08-21 01:19:00,69.9,57.0,29.70,South,186,0.0,0.0,63,0.00,,,0.00,weatherlink.com 1.10,2013-08-21 07:19:00,
2013-08-21 01:34:00,69.3,57.0,29.69,South,186,0.0,0.0,65,0.00,,,0.00,weatherlink.com 1.10,2013-08-21 07:34:00,
2013-08-21 01:49:00,69.0,58.0,29.69,South,186,0.0,0.0,67,0.00,,,0.00,weatherlink.com 1.10,2013-08-21 07:49:00,
2013-08-21 02:04:00,68.5,57.0,29.68,South,186,0.0,0.0,67,0.00,,,0.00,weatherlink.com 1.10,2013-08-21 08:04:00,
2013-08-21 02:19:00,68.0,57.0,29.68,South,186,0.0,0.0,67,0.00,,,0.00,weatherlink.com 1.10,2013-08-21 08:19:00,
2013-08-21 02:35:00,67.6,56.0,29.68,South,186,0.0,0.0,66,0.00,,,0.00,weatherlink.com 1.10,2013-08-21 08:35:00,
2013-08-21 02:50:00,67.1,56.0,29.68,South,186,0.0,0.0,68,0.00,,,0.00,weatherlink.com 1.10,2013-08-21 08:50:00,
2013-08-21 03:05:00,67.3,55.0,29.69,NNE,18,0.0,0.0,64,0.00,,,0.00,weatherlink.com 1.10,2013-08-21 09:05:00,
2013-08-21 03:20:00,67.2,55.0,29.68,NNE,18,0.0,0.0,64,0.00,,,0.00,weatherlink.com 1.10,2013-08-21 09:20:00,
2013-08-21 03:35:00,67.0,55.0,29.68,NNE,18,0.0,0.0,66,0.00,,,0.00,weatherlink.com 1.10,2013-08-21 09:35:00,
2013-08-21 03:50:00,66.5,55.0,29.69,NNE,18,0.0,0.0,66,0.00,,,0.00,weatherlink.com 1.10,2013-08-21 09:50:00,
2013-08-21 04:05:00,66.4,55.0,29.69,NNE,18,0.0,0.0,66,0.00,,,0.00,weatherlink.com 1.10,2013-08-21 10:05:00,
2013-08-21 04:20:00,65.9,55.0,29.69,NNE,18,0.0,0.0,67,0.00,,,0.00,weatherlink.com 1.10,2013-08-21 10:20:00,
2013-08-21 04:35:00,65.2,55.0,29.70,NNE,18,0.0,0.0,69,0.00,,,0.00,weatherlink.com 1.10,2013-08-21 10:35:00,
2013-08-21 04:50:00,65.1,55.0,29.70,NNE,18,0.0,0.0,69,0.00,,,0.00,weatherlink.com 1.10,2013-08-21 10:50:00,
2013-08-21 05:05:00,65.2,54.0,29.70,NNE,18,0.0,0.0,68,0.00,,,0.00,weatherlink.com 1.10,2013-08-21 11:05:00,
2013-08-21 05:20:00,64.5,54.0,29.71,NNE,18,0.0,0.0,68,0.00,,,0.00,weatherlink.com 1.10,2013-08-21 11:20:00,
2013-08-21 05:35:00,64.2,53.0,29.71,NNE,18,0.0,0.0,68,0.00,,,0.00,weatherlink.com 1.10,2013-08-21 11:35:00,
2013-08-21 05:50:00,64.1,53.0,29.71,ENE,59,0.0,0.0,68,0.00,,,0.00,weatherlink.com 1.10,2013-08-21 11:50:00,
2013-08-21 06:05:00,64.2,53.0,29.71,ENE,59,0.0,0.0,68,0.00,,,0.00,weatherlink.com 1.10,2013-08-21 12:05:00,
2013-08-21 06:20:00,64.0,54.0,29.72,ENE,59,0.0,0.0,70,0.00,,,0.00,weatherlink.com 1.10,2013-08-21 12:20:00,
2013-08-21 06:35:00,63.6,55.0,29.73,ENE,59,0.0,0.0,73,0.00,,,0.00,weatherlink.com 1.10,2013-08-21 12:35:00,
2013-08-21 06:50:00,63.4,55.0,29.73,ENE,59,0.0,0.0,74,0.00,,,0.00,weatherlink.com 1.10,2013-08-21 12:50:00,
2013-08-21 07:05:00,63.5,55.0,29.73,ENE,59,0.0,0.0,75,0.00,,,0.00,weatherlink.com 1.10,2013-08-21 13:05:00,
2013-08-21 07:20:00,65.3,56.0,29.74,SE,139,0.0,0.0,72,0.00,,,0.00,weatherlink.com 1.10,2013-08-21 13:20:00,
2013-08-21 07:35:00,67.8,56.0,29.74,SE,138,0.0,0.0,67,0.00,,,0.00,weatherlink.com 1.10,2013-08-21 13:35:00,
2013-08-21 07:50:00,70.8,57.0,29.74,SE,138,0.0,0.0,61,0.00,,,0.00,weatherlink.com 1.10,2013-08-21 13:50:00,
2013-08-21 08:05:00,71.4,56.0,29.75,SE,137,0.0,0.0,58,0.00,,,0.00,weatherlink.com 1.10,2013-08-21 14:05:00,
2013-08-21 08:20:00,72.3,56.0,29.75,SE,136,0.0,0.0,57,0.00,,,0.00,weatherlink.com 1.10,2013-08-21 14:20:00,
2013-08-21 08:35:00,73.5,56.0,29.75,North,5,0.0,0.0,54,0.00,,,0.00,weatherlink.com 1.10,2013-08-21 14:35:00,
2013-08-21 08:50:00,74.5,55.0,29.75,SW,234,0.0,0.0,51,0.00,,,0.00,weatherlink.com 1.10,2013-08-21 14:50:00,
2013-08-21 09:05:00,75.9,55.0,29.75,SSW,193,0.0,0.0,49,0.00,,,0.00,weatherlink.com 1.10,2013-08-21 15:05:00,
2013-08-21 09:20:00,77.0,55.0,29.75,WSW,248,0.0,0.0,46,0.00,,,0.00,weatherlink.com 1.10,2013-08-21 15:20:00,
2013-08-21 09:35:00,77.6,55.0,29.75,WSW,241,0.0,0.0,46,0.00,,,0.00,weatherlink.com 1.10,2013-08-21 15:35:00,
2013-08-21 09:50:00,77.5,55.0,29.75,South,186,0.0,2.0,46,0.00,,,0.00,weatherlink.com 1.10,2013-08-21 15:50:00,
2013-08-21 10:05:00,78.6,55.0,29.75,NW,324,0.0,4.0,44,0.00,,,0.00,weatherlink.com 1.10,2013-08-21 16:05:00,
2013-08-21 10:20:00,79.3,55.0,29.75,West,265,1.0,3.0,43,0.00,,,0.00,weatherlink.com 1.10,2013-08-21 16:20:00,
2013-08-21 10:35:00,80.5,55.0,29.75,South,183,0.0,4.0,41,0.00,,,0.00,weatherlink.com 1.10,2013-08-21 16:35:00,
2013-08-21 10:51:00,81.2,55.0,29.75,South,184,5.0,7.0,40,0.00,,,0.00,weatherlink.com 1.10,2013-08-21 16:51:00,
2013-08-21 11:06:00,82.0,55.0,29.74,WSW,244,5.0,5.0,40,0.00,,,0.00,weatherlink.com 1.10,2013-08-21 17:06:00,
2013-08-21 11:21:00,82.2,55.0,29.74,West,259,1.0,8.0,39,0.00,,,0.00,weatherlink.com 1.10,2013-08-21 17:21:00,
2013-08-21 11:36:00,83.0,55.0,29.74,SSW,200,6.0,7.0,38,0.00,,,0.00,weatherlink.com 1.10,2013-08-21 17:36:00,
2013-08-21 11:51:00,83.9,54.0,29.73,South,184,0.0,6.0,36,0.00,,,0.00,weatherlink.com 1.10,2013-08-21 17:51:00,
2013-08-21 12:06:00,85.2,55.0,29.73,South,176,5.0,12.0,35,0.00,,,0.00,weatherlink.com 1.10,2013-08-21 18:06:00,
2013-08-21 12:21:00,86.0,54.0,29.72,SSW,208,6.0,13.0,33,0.00,,,0.00,weatherlink.com 1.10,2013-08-21 18:21:00,
2013-08-21 12:36:00,85.8,53.0,29.71,SSW,199,0.0,14.0,32,0.00,,,0.00,weatherlink.com 1.10,2013-08-21 18:36:00,
2013-08-21 12:51:00,87.2,54.0,29.70,WSW,240,1.0,7.0,32,0.00,,,0.00,weatherlink.com 1.10,2013-08-21 18:51:00,
2013-08-21 13:06:00,88.1,54.0,29.70,South,181,0.0,7.0,31,0.00,,,0.00,weatherlink.com 1.10,2013-08-21 19:06:00,
2013-08-21 13:21:00,88.2,53.0,29.69,South,174,0.0,7.0,30,0.00,,,0.00,weatherlink.com 1.10,2013-08-21 19:21:00,
2013-08-21 13:36:00,88.1,53.0,29.68,SE,138,2.0,8.0,30,0.00,,,0.00,weatherlink.com 1.10,2013-08-21 19:36:00,
2013-08-21 13:51:00,87.7,54.0,29.68,SSW,192,8.0,8.0,31,0.00,,,0.00,weatherlink.com 1.10,2013-08-21 19:51:00,
2013-08-21 14:06:00,88.0,53.0,29.67,SSW,195,1.0,3.0,30,0.00,,,0.00,weatherlink.com 1.10,2013-08-21 20:06:00,
2013-08-21 14:21:00,87.9,52.0,29.67,South,188,2.0,7.0,29,0.00,,,0.00,weatherlink.com 1.10,2013-08-21 20:21:00,
2013-08-21 14:36:00,87.4,51.0,29.67,SE,132,0.0,2.0,29,0.00,,,0.00,weatherlink.com 1.10,2013-08-21 20:36:00,
2013-08-21 14:51:00,86.9,52.0,29.67,SE,143,0.0,3.0,30,0.00,,,0.00,weatherlink.com 1.10,2013-08-21 20:51:00,
2013-08-21 15:06:00,86.0,51.0,29.66,SE,125,0.0,3.0,30,0.00,,,0.00,weatherlink.com 1.10,2013-08-21 21:06:00,
2013-08-21 15:21:00,85.8,50.0,29.65,East,98,0.0,2.0,29,0.00,,,0.00,weatherlink.com 1.10,2013-08-21 21:21:00,
2013-08-21 15:36:00,85.4,50.0,29.65,East,88,2.0,6.0,29,0.00,,,0.00,weatherlink.com 1.10,2013-08-21 21:36:00,
2013-08-21 15:51:00,85.4,51.0,29.65,SSE,150,2.0,12.0,30,0.00,,,0.00,weatherlink.com 1.10,2013-08-21 21:51:00,
2013-08-21 16:06:00,82.4,51.0,29.65,South,175,7.0,17.0,34,0.00,,,0.00,weatherlink.com 1.10,2013-08-21 22:06:00,
2013-08-21 16:21:00,81.6,48.0,29.65,SW,232,5.0,13.0,31,0.00,,,0.00,weatherlink.com 1.10,2013-08-21 22:21:00,
2013-08-21 16:36:00,82.8,49.0,29.64,WSW,253,0.0,3.0,31,0.00,,,0.00,weatherlink.com 1.10,2013-08-21 22:36:00,
2013-08-21 16:51:00,84.4,48.0,29.64,West,279,0.0,2.0,28,0.00,,,0.00,weatherlink.com 1.10,2013-08-21 22:51:00,
2013-08-21 17:06:00,85.1,49.0,29.64,SSE,148,0.0,1.0,29,0.00,,,0.00,weatherlink.com 1.10,2013-08-21 23:06:00,
2013-08-21 17:21:00,84.3,51.0,29.63,East,94,0.0,3.0,31,0.00,,,0.00,weatherlink.com 1.10,2013-08-21 23:21:00,
2013-08-21 17:36:00,84.1,50.0,29.63,ESE,120,0.0,3.0,31,0.00,,,0.00,weatherlink.com 1.10,2013-08-21 23:36:00,
2013-08-21 17:51:00,83.9,50.0,29.63,East,79,1.0,2.0,31,0.00,,,0.00,weatherlink.com 1.10,2013-08-21 23:51:00,
2013-08-21 18:06:00,84.8,51.0,29.62,East,96,0.0,2.0,31,0.00,,,0.00,weatherlink.com 1.10,2013-08-22 00:06:00,
2013-08-21 18:21:00,85.9,50.0,29.63,ENE,65,0.0,2.0,29,0.00,,,0.00,weatherlink.com 1.10,2013-08-22 00:21:00,
2013-08-21 18:36:00,86.8,50.0,29.63,SE,130,0.0,1.0,28,0.00,,,0.00,weatherlink.com 1.10,2013-08-22 00:36:00,
2013-08-21 18:51:00,88.2,49.0,29.63,SSE,154,1.0,3.0,26,0.00,,,0.00,weatherlink.com 1.10,2013-08-22 00:51:00,
2013-08-21 19:06:00,87.7,50.0,29.64,SSE,162,3.0,3.0,27,0.00,,,0.00,weatherlink.com 1.10,2013-08-22 01:06:00,
2013-08-21 19:21:00,86.0,49.0,29.64,SSE,159,3.0,11.0,28,0.00,,,0.00,weatherlink.com 1.10,2013-08-22 01:21:00,
2013-08-21 19:36:00,84.5,48.0,29.64,South,178,3.0,6.0,28,0.00,,,0.00,weatherlink.com 1.10,2013-08-22 01:36:00,
2013-08-21 19:51:00,83.3,49.0,29.64,South,177,0.0,5.0,30,0.00,,,0.00,weatherlink.com 1.10,2013-08-22 01:51:00,
2013-08-21 20:06:00,82.3,49.0,29.65,South,183,0.0,4.0,31,0.00,,,0.00,weatherlink.com 1.10,2013-08-22 02:06:00,
2013-08-21 20:21:00,81.3,50.0,29.65,SSE,158,0.0,0.0,33,0.00,,,0.00,weatherlink.com 1.10,2013-08-22 02:21:00,
2013-08-21 20:36:00,79.8,50.0,29.66,SSE,157,0.0,0.0,35,0.00,,,0.00,weatherlink.com 1.10,2013-08-22 02:36:00,
2013-08-21 20:51:00,78.2,50.0,29.66,SSE,157,0.0,0.0,37,0.00,,,0.00,weatherlink.com 1.10,2013-08-22 02:51:00,
2013-08-21 21:06:00,77.2,49.0,29.67,SSE,157,0.0,0.0,37,0.00,,,0.00,weatherlink.com 1.10,2013-08-22 03:06:00,
2013-08-21 21:21:00,76.7,48.0,29.68,SSE,157,0.0,0.0,36,0.00,,,0.00,weatherlink.com 1.10,2013-08-22 03:21:00,
2013-08-21 21:36:00,76.4,47.0,29.69,SSE,157,0.0,0.0,36,0.00,,,0.00,weatherlink.com 1.10,2013-08-22 03:36:00,
2013-08-21 21:51:00,76.3,47.0,29.70,SSE,157,0.0,0.0,35,0.00,,,0.00,weatherlink.com 1.10,2013-08-22 03:51:00,
2013-08-21 22:06:00,76.0,48.0,29.70,SSE,157,0.0,0.0,37,0.00,,,0.00,weatherlink.com 1.10,2013-08-22 04:06:00,
2013-08-21 22:22:00,75.6,47.0,29.71,SSE,157,0.0,0.0,37,0.00,,,0.00,weatherlink.com 1.10,2013-08-22 04:22:00,
2013-08-21 22:37:00,75.2,47.0,29.71,SSE,157,0.0,0.0,37,0.00,,,0.00,weatherlink.com 1.10,2013-08-22 04:37:00,
2013-08-21 22:52:00,75.3,47.0,29.71,East,80,0.0,0.0,37,0.00,,,0.00,weatherlink.com 1.10,2013-08-22 04:52:00,
2013-08-21 23:07:00,75.0,48.0,29.72,East,80,0.0,0.0,38,0.00,,,0.00,weatherlink.com 1.10,2013-08-22 05:07:00,
2013-08-21 23:22:00,74.0,47.0,29.72,East,80,0.0,0.0,39,0.00,,,0.00,weatherlink.com 1.10,2013-08-22 05:22:00,
2013-08-21 23:37:00,73.1,49.0,29.72,East,80,0.0,0.0,42,0.00,,,0.00,weatherlink.com 1.10,2013-08-22 05:37:00,
2013-08-21 23:52:00,72.5,49.0,29.72,East,80,0.0,0.0,43,0.00,,,0.00,weatherlink.com 1.10,2013-08-22 05:52:00,